This demonstration page uses our WeatherBlox Daily Observations layout. Learn more.

40.92945, -100.16068

Hourly Observations for April 19, 2018

Temp ( °F °C ) Dew Point ( °F °C ) Humidity (%) Winds ( mph kmh ) Pressure ( in mb ) Visibility ( mi km ) Precip ( " mm )
12:15 am 00:15 Clear 33 0.6 29 -1.8 84 84 NNW 3 6 30.39 1029 10 16.0934 0 0
12:35 am 00:35 Clear 32 -0.1 28 -2.2 86 86 WNW 3 6 30.45 1031 10 16.0934 0 0
12:55 am 00:55 Clear 30 -1 27 -3 86 86 WNW 6 9 30.45 1031 10 16.0934 0 0
1:15 am 01:15 Clear 31 -0.8 27 -2.6 88 88 WNW 6 9 30.45 1031 10 16.0934 0 0
1:35 am 01:35 Clear 30 -1 27 -2.7 88 88 NW 6 9 30.45 1031 10 16.0934 0 0
1:55 am 01:55 Clear 29 -1.6 26 -3.4 88 88 NNW 6 9 30.45 1031 10 16.0934 0 0
2:15 am 02:15 Clear 28 -2.3 25 -3.7 90 90 N 7 11 30.45 1031 10 16.0934 0 0
2:35 am 02:35 Clear 28 -2.4 25 -3.7 91 91 N 5 7 30.48 1032 10 16.0934 0 0
2:55 am 02:55 Clear 29 -1.7 26 -3.2 90 90 Calm 30.45 1031 10 16.0934 0 0
3:15 am 03:15 Clear 27 -2.8 25 -4.1 91 91 W 8 13 30.48 1032 10 16.0934 0 0
3:35 am 03:35 Clear 28 -2.3 26 -3.6 91 91 WNW 7 11 30.45 1031 10 16.0934 0 0
3:55 am 03:55 Clear 29 -1.7 26 -3.1 90 90 WNW 8 13 30.45 1031 10 16.0934 0 0
4:15 am 04:15 Clear 28 -2.1 26 -3.5 90 90 W 8 13 30.48 1032 10 16.0934 0 0
4:35 am 04:35 Clear 28 -2 26 -3.4 90 90 NW 6 9 30.48 1032 10 16.0934 0 0
4:55 am 04:55 Clear 28 -2.5 25 -4 90 90 NNW 6 9 30.5 1033 10 16.0934 0 0
5:15 am 05:15 Clear 26 -3.2 24 -4.6 90 90 NNW 6 9 30.5 1033 10 16.0934 0 0
5:35 am 05:35 Clear 27 -3 24 -4.3 91 91 WNW 6 9 30.53 1034 10 16.0934 0 0
5:55 am 05:55 Clear 27 -2.6 25 -4 90 90 WNW 7 11 30.53 1034 10 16.0934 0 0
6:15 am 06:15 Clear 27 -2.7 25 -4.1 90 90 W 7 11 30.53 1034 10 16.0934 0 0
6:35 am 06:35 Clear 29 -1.9 26 -3.3 90 90 NW 5 7 30.53 1034 10 16.0934 0 0
6:55 am 06:55 Sunny 26 -3.2 24 -4.7 90 90 NNW 5 7 30.53 1034 10 16.0934 0 0
7:15 am 07:15 Sunny 25 -3.7 23 -5 91 91 NNW 5 7 30.53 1034 10 16.0934 0 0
7:35 am 07:35 Sunny 27 -2.7 25 -4.1 90 90 NW 5 7 30.53 1034 10 16.0934 0 0
7:55 am 07:55 Sunny 28 -2 26 -3.5 90 90 NW 3 6 30.53 1034 10 16.0934 0 0
8:15 am 08:15 Sunny 30 -1 27 -2.7 88 88 WNW 3 6 30.53 1034 10 16.0934 0 0
8:35 am 08:35 Sunny 32 0 29 -1.6 89 89 W 5 7 30.53 1034 10 16.0934 0 0
8:55 am 08:55 Sunny 34 0.9 30 -0.9 88 88 Calm 30.53 1034 10 16.0934 0 0
9:15 am 09:15 Sunny 37 2.5 32 0 84 84 Calm 30.5 1033 10 16.0934 0 0
9:35 am 09:35 Sunny 38 3.6 32 0.1 78 78 Calm 30.5 1033 10 16.0934 0 0
9:55 am 09:55 Sunny 40 4.7 32 0.2 73 73 Calm 30.48 1032 10 16.0934 0 0
10:15 am 10:15 Sunny 42 5.6 31 -0.3 66 66 Calm 30.48 1032 10 16.0934 0 0
10:35 am 10:35 Sunny 43 6.3 31 -0.6 62 62 SE 3 6 30.48 1032 10 16.0934 0 0
10:55 am 10:55 Sunny 45 7 31 -0.4 60 60 SE 6 9 30.48 1032 10 16.0934 0 0
11:15 am 11:15 Sunny 46 7.5 31 -0.7 56 56 Calm 30.45 1031 10 16.0934 0 0
11:35 am 11:35 Sunny 46 8 32 -0.2 57 57 SSW 3 6 30.45 1031 10 16.0934 0 0
11:55 am 11:55 Sunny 47 8.5 31 -0.4 54 54 SE 5 7 30.45 1031 10 16.0934 0 0
12:15 pm 12:15 Sunny 49 9.2 32 0 53 53 ESE 7 11 30.45 1031 10 16.0934 0 0
12:35 pm 12:35 Sunny 49 9.5 31 -0.4 50 50 ESE 6 9 30.45 1031 10 16.0934 0 0
12:55 pm 12:55 Sunny 50 9.9 31 -0.3 49 49 E 6 9 30.42 1030 10 16.0934 0 0
1:15 pm 13:15 Sunny 51 10.4 31 -0.4 47 47 Calm 30.39 1029 10 16.0934 0 0
1:35 pm 13:35 Sunny 51 10.8 31 -0.7 45 45 SE 9 15 30.39 1029 10 16.0934 0 0
1:55 pm 13:55 Sunny 52 11.1 31 -0.6 45 45 E 5 7 30.39 1029 10 16.0934 0 0
2:15 pm 14:15 Sunny 53 11.8 32 0 45 45 SE 8 13 30.39 1029 10 16.0934 0 0
2:35 pm 14:35 Sunny 54 12 30 -1.3 40 40 E 13 20 30.36 1028 10 16.0934 0 0
2:55 pm 14:55 Sunny 55 13 31 -0.8 39 39 E 8 13 30.36 1028 10 16.0934 0 0
3:15 pm 15:15 Sunny 56 13.1 28 -2.1 35 35 ESE 8 13 30.36 1028 10 16.0934 0 0
3:35 pm 15:35 Sunny 56 13.5 29 -1.9 35 35 ESE 12 19 30.3 1026 10 16.0934 0 0
3:55 pm 15:55 Sunny 55 13 26 -3.6 32 32 ESE 12 19 30.3 1026 10 16.0934 0 0
4:15 pm 16:15 Sunny 56 13.4 26 -3.1 32 32 SE 12 19 30.3 1026 10 16.0934 0 0
4:35 pm 16:35 Sunny 57 13.7 27 -2.8 32 32 ESE 13 20 30.3 1026 10 16.0934 0 0
4:55 pm 16:55 Sunny 57 14 27 -3 31 31 ESE 9 15 30.27 1025 10 16.0934 0 0
5:15 pm 17:15 Sunny 57 13.9 28 -2.3 33 33 ESE 10 17 30.27 1025 10 16.0934 0 0
5:35 pm 17:35 Sunny 56 13.6 26 -3.2 31 31 SE 12 19 30.27 1025 10 16.0934 0 0
5:55 pm 17:55 Sunny 57 14 26 -3.2 30 30 SE 14 22 30.27 1025 10 16.0934 0 0
6:15 pm 18:15 Sunny 56 13.1 26 -3.4 32 32 SE 13 20 30.27 1025 10 16.0934 0 0
6:35 pm 18:35 Sunny 56 13.6 27 -2.9 32 32 ESE 13 20 30.27 1025 10 16.0934 0 0
6:55 pm 18:55 Sunny 56 13.6 26 -3.1 32 32 SE 13 20 30.27 1025 10 16.0934 0 0
7:15 pm 19:15 Sunny 55 13 26 -3.5 32 32 SE 14 22 30.27 1025 10 16.0934 0 0
7:35 pm 19:35 Sunny 54 12.3 26 -3.2 34 34 SE 14 22 30.24 1024 10 16.0934 0 0
7:55 pm 19:55 Sunny 53 11.8 25 -3.7 34 34 SE 10 17 30.3 1026 10 16.0934 0 0
8:15 pm 20:15 Sunny 51 10.8 26 -3.1 38 38 ESE 9 15 30.3 1026 10 16.0934 0 0
8:35 pm 20:35 Clear 50 10.1 27 -2.9 40 40 SE 8 13 30.3 1026 10 16.0934 0 0
8:55 pm 20:55 Clear 48 8.9 27 -2.6 45 45 SE 8 13 30.33 1027 10 16.0934 0 0
9:15 pm 21:15 Clear 47 8.1 28 -2.2 49 49 ESE 7 11 30.33 1027 10 16.0934 0 0
9:35 pm 21:35 Clear 46 7.7 28 -2.2 50 50 E 6 9 30.33 1027 10 16.0934 0 0
9:55 pm 21:55 Clear 45 7 28 -2.4 52 52 ESE 7 11 30.33 1027 10 16.0934 0 0
10:15 pm 22:15 Clear 43 6.3 28 -2.3 54 54 ESE 7 11 30.33 1027 10 16.0934 0 0
10:35 pm 22:35 Clear 44 6.5 28 -2.5 53 53 ESE 8 13 30.33 1027 10 16.0934 0 0
10:55 pm 22:55 Clear 45 7 28 -2.5 51 51 ESE 10 17 30.33 1027 10 16.0934 0 0
11:15 pm 23:15 Clear 44 6.7 27 -2.7 51 51 ESE 9 15 30.33 1027 10 16.0934 0 0
11:35 pm 23:35 Clear 43 6.1 28 -2.5 54 54 ESE 8 13 30.36 1028 10 16.0934 0 0
11:55 pm 23:55 Clear 43 6 28 -2.5 55 55 SE 10 17 30.36 1028 10 16.0934 0 0

Powered by AerisWeather